[[{"header":{"parameterUnit":"m.s-1","parameterCategory":1,"la1":30.2991,"la2":30.254,"lo1":-89.0895,"lo2":-89.0444,"dy":0.0017,"dx":0.0017,"nx":28,"ny":28,"refTime":"2025-01-21T03:00:00:Z","depth":0,"parameterNumber":2,"parameterNumberName":"U-component_of_WINDS"},"data":[0,0,0,0,0,0,0,0,0,0,0,0,0,0,0,0,0,0,0,0,0,0,0,0,0,0,0,0,0,0,0,0,0,0,0,0,0,0,0,0,0,0,0,0,0,0,0,0,0,0,0,0,0,0,0,0,0,0,-0.4783,-0.4785,0,-0.4889,-0.489,-0.4891,-0.486,-0.4858,-0.4856,-0.4854,-0.4963,-0.4968,-0.4973,0,0,0,0,0,0,0,0,0,0,0,0,0,-0.4555,-0.4559,-0.4783,-0.4785,-0.4786,-0.4889,-0.489,-0.4892,-0.4861,-0.4858,-0.4855,-0.4853,-0.4962,-0.4967,-0.4973,0,0,0,0,0,0,0,0,0,0,0,0,0,-0.4657,-0.4561,-0.4783,-0.4783,-0.4784,-0.4888,-0.489,-0.4892,-0.4861,-0.4858,-0.4855,-0.4851,-0.496,-0.4967,-0.4974,-0.5086,0,0,-0.4997,-0.5,0,0,0,0,0,0,0,0,-0.4651,-0.4665,-0.4782,-0.4783,-0.4784,-0.4858,-0.485,-0.4957,-0.4862,-0.4832,-0.4854,-0.485,-0.4931,-0.494,-0.4968,-0.5091,-0.5096,-0.4997,-0.5002,-0.5005,-0.5007,0,0,0,0,0,0,0,-0.4644,-0.466,-0.4825,-0.4783,-0.4785,-0.4777,-0.4788,-0.487,-0.4899,-0.4834,-0.4832,-0.4845,-0.4931,-0.496,-0.497,-0.5097,-0.4997,-0.5004,-0.5008,-0.5011,-0.5317,-0.532,0,0,0,0,0,0,-0.4636,-0.4655,-0.4822,-0.4828,-0.4708,-0.4784,-0.4796,-0.4838,-0.4898,-0.4903,-0.4848,-0.4843,-0.4949,-0.4961,-0.4974,-0.5109,-0.5005,-0.5012,-0.5016,-0.5313,-0.5317,-0.5321,0,0,0,0,0,0,-0.4631,-0.4651,-0.4817,-0.4741,-0.4762,-0.4792,-0.4838,-0.4841,-0.4871,-0.4908,-0.4913,-0.4873,-0.4947,-0.4963,-0.5058,-0.5112,-0.5015,-0.5022,-0.5309,-0.5314,-0.5319,-0.538,0,0,0,0,0,0,-0.4625,-0.4649,-0.4693,-0.4742,-0.4766,-0.4901,-0.4842,-0.4846,-0.4884,-0.4879,-0.4932,-0.4938,-0.4946,-0.5047,-0.5065,-0.5121,-0.5028,-0.5304,-0.5311,-0.5318,-0.5373,-0.5387,-0.5398,0,0,0,0,0,-0.4617,-0.4706,-0.4695,-0.4715,-0.482,-0.4904,-0.4917,-0.4924,-0.4888,-0.4932,-0.4955,-0.4936,-0.5102,-0.5057,-0.5077,-0.5136,-0.5301,-0.5309,-0.5317,-0.5368,-0.5384,-0.5398,0,0,0,0,0,0,-0.4663,-0.4712,-0.4701,-0.4809,-0.4852,-0.4898,-0.4954,-0.4941,-0.4996,-0.4989,-0.4995,-0.5008,-0.5105,-0.5129,-0.5078,-0.5246,-0.5196,-0.5209,-0.5228,-0.5244,-0.5256,-0.525,-0.5034,0,0,0,0,0,-0.4685,-0.4749,-0.4788,-0.488,-0.4902,-0.4924,-0.4961,-0.4962,-0.5007,-0.5026,-0.5056,-0.5101,-0.5163,-0.5204,-0.5263,-0.5375,-0.5387,-0.5425,-0.5438,-0.5448,-0.546,-0.5521,-0.5539,-0.5348,-0.5348,-0.5348,0,0,-0.4733,-0.4768,-0.4808,-0.489,-0.4924,-0.499,-0.494,-0.5012,-0.5061,-0.5037,-0.5129,-0.5152,-0.5202,-0.5306,-0.5353,-0.5329,-0.5514,-0.5458,-0.5466,-0.5473,-0.5531,-0.5549,-0.5565,-0.5354,-0.5353,-0.5352,0,0,-0.4854,-0.4886,-0.4966,-0.5001,-0.5052,-0.5065,-0.5084,-0.5132,-0.5147,-0.5238,-0.5221,-0.5279,-0.5386,-0.5423,-0.5455,-0.5587,-0.5573,-0.5606,-0.5673,-0.5733,-0.5748,-0.5761,-0.581,-0.5827,-0.5617,-0.5617,-0.5617,0,-0.4908,-0.5007,-0.5009,-0.5083,-0.5119,-0.5098,-0.5179,-0.5212,-0.5281,-0.5307,-0.5278,-0.5411,-0.5444,-0.5556,-0.5588,-0.5614,-0.5637,-0.5602,-0.5745,-0.5759,-0.5771,-0.5818,-0.5836,-0.5621,-0.5621,-0.562,-0.562,0,-0.507,-0.5138,-0.5197,-0.5263,-0.5305,-0.5382,-0.5396,-0.5439,-0.5435,-0.5452,-0.5545,-0.5582,-0.5649,-0.5674,-0.5672,-0.5786,-0.577,-0.5743,-0.5694,-0.5793,-0.5837,-0.5855,-0.5627,-0.5625,-0.5624,-0.5623,0,0,-0.5227,-0.5292,-0.5313,-0.5343,-0.5396,-0.5449,-0.5524,-0.5588,-0.5626,-0.5672,-0.5736,-0.5825,-0.58,-0.5837,-0.5838,-0.589,-0.5993,-0.5857,-0.5858,-0.5883,-0.6123,-0.6145,-0.6165,-0.5982,-0.5986,-0.5988,-0.6119,0,-0.5355,-0.5488,-0.5491,-0.5613,-0.5676,-0.5655,-0.5721,-0.5761,-0.5777,-0.5833,-0.585,-0.5915,-0.5876,-0.5898,-0.5948,-0.597,-0.6042,-0.596,-0.6043,-0.6046,-0.6034,-0.6188,-0.6212,-0.6333,-0.6136,-0.6139,-0.6141,0,-0.5523,-0.5574,-0.5702,-0.5746,-0.5772,-0.5831,-0.589,-0.5943,-0.5987,-0.5995,-0.6035,-0.6028,-0.6104,-0.6049,-0.6154,-0.6099,-0.6132,-0.6147,-0.6152,-0.6163,-0.6102,-0.6205,-0.6372,-0.6392,-0.6168,-0.6165,-0.6163,0,-0.5627,-0.5728,-0.5817,-0.5843,-0.5896,-0.5937,-0.5961,-0.6002,-0.604,-0.609,-0.6115,-0.6174,-0.6207,-0.6252,-0.6261,-0.6219,-0.6367,-0.6312,-0.6376,-0.6377,-0.6412,-0.641,-0.6589,-0.6428,-0.6428,-0.6427,-0.6427,0,-0.5771,-0.5851,-0.5865,-0.5921,-0.6009,-0.601,-0.6098,-0.6118,-0.6154,-0.6213,-0.6197,-0.6253,-0.6259,-0.6316,-0.6322,-0.6409,-0.6424,-0.6433,-0.6434,-0.6436,-0.6435,-0.6461,-0.6453,-0.6432,-0.6431,-0.643,-0.6429,0,-0.5905,-0.5917,-0.6014,-0.6055,-0.6067,-0.613,-0.6165,-0.6218,-0.6231,-0.6306,-0.6323,-0.6344,-0.6411,-0.6422,-0.65,-0.6504,-0.6609,-0.66,-0.6594,-0.6594,-0.6659,-0.6653,-0.6863,-0.6891,-0.6709,-0.6711,-0.6712,0,-0.5997,-0.6058,-0.6105,-0.6143,-0.6169,-0.623,-0.6269,-0.6272,-0.6312,-0.6366,-0.6412,-0.6476,-0.6528,-0.6635,-0.6657,-0.6716,-0.6711,-0.678,-0.672,-0.6719,-0.6714,-0.6712,-0.6718,-0.6793,-0.6795,-0.6796,-0.6798,0,-0.6161,-0.6164,-0.622,-0.6277,-0.6323,-0.6369,-0.6412,-0.6444,-0.6453,-0.6499,-0.6566,-0.6606,-0.6685,-0.6749,-0.6807,-0.6831,-0.6817,-0.6815,-0.6834,-0.6838,-0.6833,-0.6839,-0.6629,-0.6812,-0.681,-0.6809,-0.6809,-0.6808,-0.6279,-0.6332,-0.6373,-0.6435,-0.6467,-0.6508,-0.6559,-0.6578,-0.6634,-0.6699,-0.6696,-0.677,-0.6811,-0.6888,-0.6915,-0.6973,-0.6951,-0.6977,-0.6984,-0.6991,-0.6999,-0.6821,-0.6983,-0.6983,-0.6982,-0.6982,-0.6982,0,-0.6444,-0.6468,-0.6525,-0.6586,-0.6635,-0.6614,-0.666,-0.6703,-0.6768,-0.6807,-0.6858,-0.6934,-0.6996,-0.7022,-0.7082,-0.7123,-0.7118,-0.7139,-0.7138,-0.7144,-0.7014,-0.6993,-0.7142,-0.7142,-0.7142,-0.7142,-0.7142,-0.7142,-0.6535,-0.6624,-0.6631,-0.6735,-0.6759,-0.6831,-0.686,-0.6896,-0.6927,-0.7014,-0.7065,-0.708,-0.7114,-0.7176,-0.7232,-0.7237,-0.7261,-0.7286,-0.729,-0.7169,-0.7153,-0.7137,-0.7118,-0.7291,-0.7291,-0.7415,-0.7416,-0.7417]},{"header":{"parameterUnit":"m.s-1","parameterCategory":1,"la1":30.2991,"la2":30.254,"lo1":-89.0895,"lo2":-89.0444,"dy":0.0017,"dx":0.0017,"nx":28,"ny":28,"refTime":"2025-01-21T03:00:00:Z","depth":0,"parameterNumber":3,"parameterNumberName":"V-component_of_WINDS"},"data":[0,0,0,0,0,0,0,0,0,0,0,0,0,0,0,0,0,0,0,0,0,0,0,0,0,0,0,0,0,0,0,0,0,0,0,0,0,0,0,0,0,0,0,0,0,0,0,0,0,0,0,0,0,0,0,0,0,0,-7.6839,-7.6841,0,-7.7042,-7.7044,-7.7047,-7.695,-7.6944,-7.6939,-7.6934,-7.7134,-7.7144,-7.7154,0,0,0,0,0,0,0,0,0,0,0,0,0,-7.6359,-7.6369,-7.6839,-7.6842,-7.6844,-7.7042,-7.7044,-7.7047,-7.6951,-7.6944,-7.6938,-7.6932,-7.7131,-7.7143,-7.7155,0,0,0,0,0,0,0,0,0,0,0,0,0,-7.6565,-7.6372,-7.6839,-7.682,-7.682,-7.7041,-7.7045,-7.7048,-7.6952,-7.6944,-7.6936,-7.6929,-7.7127,-7.7142,-7.7157,-7.7406,0,0,-7.7203,-7.721,0,0,0,0,0,0,0,0,-7.6554,-7.6583,-7.682,-7.6822,-7.6822,-7.6963,-7.6948,-7.7168,-7.6954,-7.6902,-7.6934,-7.6925,-7.7083,-7.7101,-7.7156,-7.7415,-7.7423,-7.7205,-7.7214,-7.722,-7.7225,0,0,0,0,0,0,0,-7.654,-7.6574,-7.6919,-7.6824,-7.6825,-7.6798,-7.6819,-7.699,-7.7033,-7.6906,-7.6899,-7.6925,-7.7082,-7.7142,-7.716,-7.7426,-7.7204,-7.7218,-7.7227,-7.7233,-7.7897,-7.7905,0,0,0,0,0,0,-7.6527,-7.6562,-7.6913,-7.6925,-7.6667,-7.6813,-7.6837,-7.6925,-7.7031,-7.704,-7.6931,-7.692,-7.712,-7.7142,-7.7167,-7.7464,-7.722,-7.7234,-7.7243,-7.7888,-7.7899,-7.7908,0,0,0,0,0,0,-7.6517,-7.6559,-7.6904,-7.6742,-7.6784,-7.683,-7.693,-7.6933,-7.6993,-7.705,-7.7057,-7.6985,-7.7114,-7.7145,-7.7347,-7.747,-7.7241,-7.7255,-7.7878,-7.7891,-7.7903,-7.8061,0,0,0,0,0,0,-7.6504,-7.6556,-7.6654,-7.6745,-7.6793,-7.7085,-7.6938,-7.6943,-7.7021,-7.7007,-7.7102,-7.7111,-7.7111,-7.7325,-7.7362,-7.7486,-7.7267,-7.7867,-7.7884,-7.7899,-7.8045,-7.8078,-7.8106,0,0,0,0,0,-7.6487,-7.6689,-7.6659,-7.6702,-7.6916,-7.7092,-7.7119,-7.7117,-7.7031,-7.7128,-7.7164,-7.7108,-7.745,-7.7346,-7.7387,-7.7518,-7.786,-7.7879,-7.7898,-7.8032,-7.8071,-7.8105,0,0,0,0,0,0,-7.6608,-7.67,-7.6669,-7.6906,-7.6993,-7.7075,-7.7197,-7.716,-7.727,-7.7253,-7.7243,-7.7265,-7.7474,-7.7516,-7.7399,-7.7763,-7.7641,-7.7669,-7.7729,-7.7767,-7.7797,-7.7782,-7.728,0,0,0,0,0,-7.6663,-7.68,-7.6872,-7.7075,-7.712,-7.7152,-7.7228,-7.7219,-7.7307,-7.7342,-7.7393,-7.7478,-7.7604,-7.7688,-7.7807,-7.805,-7.8068,-7.816,-7.819,-7.8215,-7.8239,-7.8369,-7.841,-7.7971,-7.7971,-7.797,0,0,-7.6776,-7.6844,-7.6931,-7.7101,-7.7167,-7.7307,-7.7183,-7.7336,-7.7439,-7.7364,-7.7559,-7.7599,-7.7692,-7.7916,-7.8017,-7.7957,-7.8365,-7.8239,-7.8258,-7.827,-7.8393,-7.8435,-7.8472,-7.7984,-7.7981,-7.7979,0,0,-7.7055,-7.7121,-7.7297,-7.7365,-7.7467,-7.7486,-7.7528,-7.7618,-7.7642,-7.7837,-7.7783,-7.7904,-7.8122,-7.8191,-7.8255,-7.8558,-7.851,-7.8597,-7.8755,-7.8882,-7.8916,-7.8947,-7.9054,-7.9093,-7.8621,-7.8622,-7.8622,0,-7.7183,-7.7395,-7.7391,-7.755,-7.7625,-7.7565,-7.7742,-7.7807,-7.7942,-7.7994,-7.7925,-7.8198,-7.8257,-7.8495,-7.8569,-7.8622,-7.8668,-7.8586,-7.8912,-7.8943,-7.8971,-7.9073,-7.9114,-7.8631,-7.863,-7.8629,-7.8628,0,-7.7546,-7.7694,-7.7823,-7.7957,-7.8047,-7.8213,-7.8232,-7.8323,-7.8305,-7.8331,-7.8529,-7.8597,-7.8729,-7.8785,-7.8769,-7.902,-7.898,-7.8913,-7.879,-7.9023,-7.9119,-7.9158,-7.8646,-7.8642,-7.8639,-7.8637,0,0,-7.7908,-7.8038,-7.8085,-7.8145,-7.8252,-7.8364,-7.8526,-7.8658,-7.8735,-7.8829,-7.8963,-7.9149,-7.9087,-7.9159,-7.915,-7.9261,-7.9496,-7.918,-7.9181,-7.9235,-7.9775,-7.9826,-7.9871,-7.9464,-7.9472,-7.9478,-7.9767,0,-7.8194,-7.8483,-7.8483,-7.8747,-7.8882,-7.8826,-7.8967,-7.9046,-7.9074,-7.919,-7.9219,-7.9351,-7.926,-7.9302,-7.941,-7.9445,-7.9604,-7.9424,-7.9587,-7.9593,-7.9566,-7.9921,-7.9976,-8.0246,-7.9805,-7.9811,-7.9816,0,-7.8568,-7.8676,-7.8955,-7.9041,-7.9098,-7.9225,-7.9344,-7.9457,-7.9544,-7.9556,-7.9637,-7.961,-7.9772,-7.9644,-7.9866,-7.9743,-7.9809,-7.9836,-7.9846,-7.9861,-7.9719,-7.9945,-8.0332,-8.0372,-7.9875,-7.987,-7.9866,0,-7.8803,-7.9018,-7.9213,-7.9265,-7.9371,-7.9461,-7.9509,-7.9589,-7.9668,-7.9771,-7.9821,-7.9941,-8.0007,-8.0098,-8.0103,-8.001,-8.0326,-8.0199,-8.0339,-8.0339,-8.0408,-8.0404,-8.081,-8.0452,-8.0451,-8.045,-8.0449,0,-7.9123,-7.9295,-7.932,-7.944,-7.963,-7.9627,-7.9814,-7.9853,-7.9925,-8.0048,-8.0006,-8.0122,-8.0122,-8.024,-8.0244,-8.0426,-8.0456,-8.0468,-8.0467,-8.0473,-8.0471,-8.0516,-8.0497,-8.0461,-8.0459,-8.0456,-8.0455,0,-7.9418,-7.9442,-7.965,-7.9733,-7.9758,-7.9895,-7.9964,-8.0076,-8.01,-8.0257,-8.0293,-8.0329,-8.0465,-8.048,-8.0637,-8.064,-8.0859,-8.0838,-8.0831,-8.0828,-8.0966,-8.0953,-8.1416,-8.1475,-8.1078,-8.1082,-8.1085,0,-7.9621,-7.9753,-7.985,-7.9932,-7.9985,-8.0116,-8.0196,-8.0197,-8.0282,-8.0391,-8.0489,-8.0622,-8.0728,-8.0947,-8.0986,-8.1105,-8.1087,-8.124,-8.1104,-8.1105,-8.1088,-8.108,-8.1093,-8.1267,-8.1271,-8.1275,-8.1278,0,-7.9978,-7.9983,-8.0102,-8.0226,-8.0323,-8.0419,-8.0509,-8.0577,-8.0589,-8.0685,-8.0826,-8.0908,-8.107,-8.1201,-8.1319,-8.1364,-8.1323,-8.132,-8.1359,-8.1365,-8.1356,-8.1362,-8.0903,-8.131,-8.1306,-8.1304,-8.1302,-8.1301,-8.0233,-8.0347,-8.0434,-8.0567,-8.0635,-8.072,-8.083,-8.0867,-8.0985,-8.1119,-8.1111,-8.1265,-8.1346,-8.15,-8.1554,-8.1673,-8.1621,-8.1677,-8.1691,-8.1705,-8.1719,-8.1337,-8.1694,-8.1693,-8.1692,-8.1691,-8.1691,0,-8.0587,-8.064,-8.0763,-8.0891,-8.0996,-8.095,-8.1046,-8.1136,-8.1273,-8.1354,-8.146,-8.1619,-8.1746,-8.1794,-8.1917,-8.2002,-8.1986,-8.2035,-8.2028,-8.2039,-8.1758,-8.1713,-8.2046,-8.2045,-8.2045,-8.2045,-8.2045,-8.2045,-8.0784,-8.0974,-8.0989,-8.1211,-8.1262,-8.1415,-8.1474,-8.1551,-8.1615,-8.1797,-8.1903,-8.1934,-8.2001,-8.2128,-8.2242,-8.2252,-8.2299,-8.2355,-8.2358,-8.2095,-8.2059,-8.2025,-8.1982,-8.2366,-8.2366,-8.2628,-8.2631,-8.2633]}]]